Terug naar catalogus

THORAD AGENA D DEB

ActiefLEO
NORAD 42537·DEBRIS·🇺🇸 United States

Gelanceerd Apr 8, 1970 vanaf Vandenberg Space Force Base

Loading…

Volgende Passages (komende 24 uur)

TLE

VerouderdSource: Space-Track

Epoch: Sep 6, 2026, 11:00 UTC

1 42537U 70025ST  26249.45892057  .00000471  00000-0  47298-3 0  9993
2 42537 100.0085 155.3797 0009963  28.2902 331.8789 13.83381256 63888

Volg THORAD AGENA D DEB in realtime met AllMySat

Download on the App Store